Location: ????
(30.2663°N, 31.2484°E)
Time: 17:43:52
(UTC+00:00)

CZ-2C R/B - Pass Details

Date: 28 March 2023
Orbit: 784 x 869 km, 98.3° (Epoch: 04 June)

Event Time Altitude Azimuth Distance (km) Brightness Sun altitude
Exits shadow 01:38:18 85° 354° (N) 875 2.6 -28.4°
Drops below altitude 10° 01:43:43 10° 348° (NNW) 2,500 5.2 -27.3°
Sets 01:46:05 0° 348° (NNW) 3,431 6.0 -26.9°
